Mesa, AZ

5:02 AM MST on September 28, 2016 (GMT -0700)
Phoenix-Mesa Gateway Airport

Weather History for KIWA - December, 2013

Change the Weather History Date:

Monday, December 16, 2013

  Actual Average Record
Temperature  
Mean Temperature 55 °F -  
Max Temperature 71 °F 63 °F 80 °F (1998)
Min Temperature 39 °F 38 °F 28 °F (2015)
Degree Days  
Heating Degree Days 10    
Growing Degree Days 5 (Base 50)    
Moisture  
Dew Point 32 °F    
Average Humidity 54    
Maximum Humidity 70    
Minimum Humidity 20    
Precipitation  
Precipitation 0.00 in - - ()
Sea Level Pressure  
Sea Level Pressure 30.19 in    
Wind  
Wind Speed 4 mph (ESE)    
Max Wind Speed 9 mph    
Max Gust Speed -    
Visibility 12 miles    
Events      
Averages and records for this station are not official NWS values.
T = Trace of Precipitation, MM = Missing Value Source: NWS Daily Summary

Daily Weather History Graph

Daily Weather History Graph

Search for Another Location

Airport or City:

Trip Planner

Search our weather history database for the weather conditions in past years. The results will help you decide how hot, cold, wet, or windy it might be!

Date:

Astronomy

Dec. 16, 2013 Rise Set
Actual Time 7:23 AM MST 5:21 PM MST
Civil Twilight 6:56 AM MST 5:48 PM MST
Nautical Twilight 6:25 AM MST 6:19 PM MST
Astronomical Twilight 5:54 AM MST 6:49 PM MST
Moon 5:11 PM MST (12/16) 6:37 AM MST (12/16)
Length of Visible Light 10h 52m
Length of Day
9h 57m
Full, 100% of the Moon is Illuminated
Dec 16
Full
Dec 17
Full
Dec 25
Last Quarter
Jan 1
New
Jan 7
First Quarter

Hourly Weather History & Observations

Time (MST) Temp. Windchill Dew Point Humidity Pressure Visibility Wind Dir Wind Speed Gust Speed Precip Events Conditions
12:15 AM 42.8 °F - 32.0 °F 66% 30.21 in 10.0 mi Calm Calm - N/A   Clear
12:35 AM 42.8 °F 41.1 °F 30.2 °F 61% 30.21 in 10.0 mi NE 3.5 mph - N/A   Clear
12:55 AM 42.8 °F 40.1 °F 30.2 °F 61% 30.21 in 10.0 mi East 4.6 mph - N/A   Clear
1:15 AM 42.8 °F 38.6 °F 30.2 °F 61% 30.21 in 10.0 mi ESE 6.9 mph - N/A   Clear
1:35 AM 42.8 °F 38.6 °F 32.0 °F 66% 30.20 in 10.0 mi ESE 6.9 mph - N/A   Clear
3:15 AM 42.8 °F 41.1 °F 30.2 °F 61% 30.20 in 10.0 mi SE 3.5 mph - N/A   Clear
3:35 AM 41.0 °F 39.0 °F 30.2 °F 65% 30.20 in 10.0 mi NNE 3.5 mph - N/A   Clear
3:55 AM 41.0 °F 38.0 °F 30.2 °F 65% 30.19 in 10.0 mi SE 4.6 mph - N/A   Clear
4:15 AM 42.8 °F 37.5 °F 30.2 °F 61% 30.18 in 10.0 mi East 9.2 mph - N/A   Clear
4:35 AM 42.8 °F 38.0 °F 30.2 °F 61% 30.18 in 10.0 mi East 8.1 mph - N/A   Clear
4:47 AM 42.8 °F 39.3 °F 30.2 °F 61% 30.18 in 20.0 mi SE 5.8 mph - N/A   Clear
4:55 AM 42.8 °F 39.3 °F 30.2 °F 61% 30.17 in 10.0 mi SSE 5.8 mph - N/A   Clear
5:15 AM 42.8 °F 40.1 °F 30.2 °F 61% 30.18 in 10.0 mi SE 4.6 mph - N/A   Clear
5:50 AM 39.2 °F 33.6 °F 30.2 °F 70% 30.18 in 20.0 mi SE 8.1 mph - N/A   Clear
6:47 AM 41.0 °F 38.0 °F 30.2 °F 65% 30.20 in 20.0 mi NE 4.6 mph - N/A   Mostly Cloudy
7:52 AM 41.0 °F 38.0 °F 28.4 °F 61% 30.22 in 45.0 mi SE 4.6 mph - N/A   Mostly Cloudy
8:47 AM 46.4 °F 45.2 °F 30.2 °F 53% 30.23 in 45.0 mi ENE 3.5 mph - N/A   Mostly Cloudy
9:47 AM 53.6 °F - 32.0 °F 44% 30.24 in 35.0 mi SSW 3.5 mph - N/A   Mostly Cloudy
10:50 AM 60.8 °F - 30.2 °F 31% 30.24 in 45.0 mi Calm Calm - N/A   Mostly Cloudy
11:47 AM 64.4 °F - 28.4 °F 26% 30.22 in 45.0 mi West 3.5 mph - N/A   Mostly Cloudy
12:47 PM 66.2 °F - 30.2 °F 26% 30.19 in 45.0 mi Calm Calm - N/A   Mostly Cloudy
1:50 PM 69.8 °F - 28.4 °F 21% 30.16 in 45.0 mi South 3.5 mph - N/A   Mostly Cloudy
2:47 PM 71.6 °F - 28.4 °F 20% 30.15 in 45.0 mi Calm Calm - N/A   Mostly Cloudy
3:51 PM 71.6 °F - 32.0 °F 23% 30.14 in 45.0 mi SSW 3.5 mph - N/A   Scattered Clouds
4:47 PM 66.2 °F - 33.8 °F 30% 30.14 in 35.0 mi Variable 3.5 mph - N/A   Scattered Clouds
5:47 PM 62.6 °F - 30.2 °F 30% 30.15 in 20.0 mi ESE 3.5 mph - N/A   Partly Cloudy
7:55 PM 51.8 °F - 35.6 °F 54% 30.17 in 10.0 mi Calm Calm - N/A   Clear
8:15 PM 51.8 °F - 35.6 °F 54% 30.17 in 10.0 mi East 3.5 mph - N/A   Clear
8:35 PM 50.0 °F - 35.6 °F 58% 30.17 in 10.0 mi ESE 3.5 mph - N/A   Clear
8:47 PM 48.2 °F - 35.6 °F 62% 30.17 in 20.0 mi SSE 3.5 mph - N/A   Partly Cloudy
8:55 PM 46.4 °F - 33.8 °F 62% 30.17 in 10.0 mi Calm Calm - N/A   Clear
9:15 PM 50.0 °F - 35.6 °F 58% 30.17 in 10.0 mi ESE 5.8 mph - N/A   Clear
9:35 PM 48.2 °F - 33.8 °F 58% 30.17 in 10.0 mi East 5.8 mph - N/A   Clear
9:55 PM 46.4 °F 42.9 °F 33.8 °F 62% 30.17 in 10.0 mi East 6.9 mph - N/A   Clear
10:15 PM 46.4 °F 41.9 °F 33.8 °F 62% 30.18 in 10.0 mi East 9.2 mph - N/A   Clear
10:52 PM 46.4 °F 45.2 °F 35.6 °F 66% 30.19 in 20.0 mi SE 3.5 mph - N/A   Partly Cloudy
10:55 PM 46.4 °F 42.9 °F 33.8 °F 62% 30.19 in 10.0 mi East 6.9 mph - N/A   Clear
11:15 PM 46.4 °F 42.4 °F 33.8 °F 62% 30.19 in 10.0 mi ESE 8.1 mph - N/A   Clear
11:35 PM 44.6 °F 41.4 °F 33.8 °F 66% 30.19 in 10.0 mi ESE 5.8 mph - N/A   Clear
11:47 PM 46.4 °F 43.5 °F 33.8 °F 62% 30.18 in 20.0 mi East 5.8 mph - N/A   Partly Cloudy
11:55 PM 44.6 °F 40.7 °F 33.8 °F 66% 30.18 in 10.0 mi East 6.9 mph - N/A   Clear